Flag for Canada Weather past 2 weeks in Niagara Falls, Ontario, Canada

Now
74 °F

Clear.


Feels Like: 75 °F
Forecast: 66 / 75 °F
Wind: 10 mph from Southwest

Location: Niagara Falls International Airport

Current Time: Jul 23, 2014 at 4:26:08 AM

Latest Report: Jul 23, 2014 at 1:53 AM


Visibility: 9 mi

Pressure: 29.88 "Hg

Humidity: 76%

Dew point: 66 °F

Location of Niagara FallsLocation

Historic Weather in Niagara Falls — Graph

°F

Niagara Falls temperature yesterday

Maximum temperature yesterday: 83 °F (at 6:53 PM)
Minimum temperature yesterday: 61 °F (at 5:53 AM)
Average temperature yesterday: 72 °F

Past Weeks' High & Low Weather Summary

 TemperatureHumidityPressure
High83 °F (Jul 13, 5:53 PM)96% (Jul 21, 6:00 AM)30.24 "Hg (Jul 21, 6:00 AM)
Low52 °F (Jul 10, 5:53 AM)33% (Jul 18, 4:53 PM)29.50 "Hg (Jul 8, 2:53 PM)
Average68 °F72%29.98 "Hg
* Reported Jul 8 12:53 AM — Jul 23 12:53 AM, Niagara Falls, Weather by CustomWeather, © 2014

Note: Actual official high and low records may vary slightly from our data, if they occured in-between our weather recording intervals... More about our weather records

Advertising

Niagara Falls weather history for July 8, 2014

 ConditionsComfort  
Time TempWeatherWind HumidityBarometerVisibility
12:53 AM
Jul 8
72 °FPassing clouds.8 mph84%29.68 "Hg9 mi
1:53 AM70 °FPassing clouds.8 mph87%29.68 "Hg10 mi
2:53 AM70 °FPassing clouds.8 mph90%29.67 "Hg9 mi
3:53 AM69 °FPassing clouds.10 mph90%29.63 "Hg8 mi
4:53 AM69 °FPassing clouds.10 mph87%29.65 "Hg10 mi
5:53 AM70 °FPassing clouds.10 mph87%29.66 "Hg10 mi
7:00 AM71 °FBroken clouds.10 mph87%29.69 "Hg7 mi
7:59 AM73 °FPartly sunny.13 mph84%29.69 "Hg7 mi
8:53 AM75 °FBroken clouds.15 mph82%29.67 "Hg8 mi
9:53 AM75 °FMostly cloudy.13 mph79%29.66 "Hg7 mi
10:53 AM75 °FMostly cloudy.15 mph79%29.63 "Hg7 mi
11:53 AM76 °FMostly cloudy.15 mph77%29.61 "Hg9 mi
1:00 PM75 °FLight rain. Cloudy.10 mph79%29.61 "Hg8 mi
1:53 PM74 °FLight rain. Cloudy.10 mph88%29.53 "Hg7 mi
2:53 PM75 °FLight rain. Mostly cloudy.13 mph85%29.50 "Hg7 mi
4:01 PM68 °FThunderstorms. Mostly cloudy.17 mph93%29.53 "Hg8 mi
5:03 PM70 °FBroken clouds.18 mph84%29.54 "Hg10 mi
5:53 PM71 °FBroken clouds.18 mph78%29.56 "Hg10 mi
6:53 PM71 °FBroken clouds.18 mph76%29.59 "Hg10 mi
7:53 PM69 °FBroken clouds.16 mph76%29.57 "Hg10 mi
9:53 PM68 °FScattered clouds.17 mph76%29.62 "Hg10 mi
10:53 PM66 °FPassing clouds.18 mph81%29.67 "Hg10 mi
11:53 PM63 °FClear.13 mph84%29.70 "Hg10 mi
Weather by CustomWeather, © 2014

See weather overviewHow to use our weather pages